Lexington Weather

Lexington, Massachusetts, USA

34°F
4/16/2021 10:17am 
  • Lexington Conditions: Snow, Fog, Overcast
  • Temperature: 34.0°F / 1.1°CColder 0.3°F than last hour.
  • Dew Point: 32.7°FDecreased 0.4°Fsince last hour.
  • Relative Humidity: 95
  • Wind: Calm, 10-min avg: Calm, gust: None
  • Barometer: 29.49 in Steady
  • Visibility: ½ mile
  • Snow Today: 1.3 in
  •   

Regional Weather Roundup
for Boston / Norton, MA

        
000
ASUS41 KBOX 111304
RWRBOX

REGIONAL WEATHER ROUNDUP
NATIONAL WEATHER SERVICE BOSTON/NORTON MA
900 AM EDT SUN APR 11 2021

NOTE:  "FAIR" INDICATES FEW OR NO CLOUDS BELOW 12,000 FEET WITH NO 
SIGNIFICANT WEATHER AND/OR OBSTRUCTIONS TO VISIBILITY.

MAZALL-111400-
EASTERN MASSACHUSETTS
  
CITY           SKY/WX    TMP DP  RH WIND       PRES   REMARKS
BOSTON         CLOUDY    47  41  80 N14       29.79S                  
BEVERLY        NOT AVBL                                               
LAWRENCE       SUNNY     49  40  71 NE14      29.79F                  
BEDFORD        CLOUDY    47  42  83 NE8       29.77S                  
BLUE HILL        N/A     42  42 100 NE9G18    29.75R                  
NORWOOD        CLOUDY    49  43  80 NE7       29.77S                  
MARSHFIELD     CLOUDY    45  45 100 VRB5G21   29.76F FOG              
PLYMOUTH       CLOUDY    46  44  93 N12       29.75R FOG              
TAUNTON        CLOUDY    48  44  86 N7        29.75S                  
NEW BEDFORD    CLOUDY    49  47  93 VRB7      29.73S                  
$$

MAZALL-111400-
CAPE COD AND THE ISLANDS
  
CITY           SKY/WX    TMP DP  RH WIND       PRES   REMARKS
FALMOUTH       FOG       46  46 100 N12       29.74R VSB 1/2          
HYANNIS        FOG       47  46  97 N12G20    29.71S VSB 1/2          
CHATHAM        CLOUDY    47  46  97 VRB6      29.72S FOG              
PROVINCETOWN   LGT RAIN  45  45 100 N13       29.75S VSB 3/4          
NANTUCKET      CLOUDY    52  52 100 N13       29.71F FOG              
MARTHAS VNYRD  FOG       54  53  97 NE10      29.72F VSB 1            
$$
 
MAZALL-111400-
CENTRAL AND WESTERN MASSACHUSETTS
  
CITY           SKY/WX    TMP DP  RH WIND       PRES   REMARKS
WORCESTER      FOG       48  46  93 NE7G18    29.74S VSB<1/4          
FITCHBURG      CLOUDY    49  47  93 VRB3      29.78R                  
ORANGE         CLOUDY    53  48  83 NE10      29.74S                  
SPRINGFIELD    PTSUNNY   58  53  85 NE8       29.70S                  
WESTFIELD      CLOUDY    55  53  93 N6        29.71S                  
NORTH ADAMS    SUNNY     63  51  65 E13       29.68F                  
PITTSFIELD     SUNNY     59  52  77 NE6       29.67F                  
$$
 
RIZALL-111400-
RHODE ISLAND
  
CITY           SKY/WX    TMP DP  RH WIND       PRES   REMARKS
PROVIDENCE     CLOUDY    52  49  89 NE9       29.74S FOG              
NEWPORT        CLOUDY    52  52 100 N9        29.72S FOG              
BLOCK ISLAND   FOG       51  50  96 NE7       29.72F VSB 1/4          
SMITHFIELD     CLOUDY    48  48 100 NE10      29.75S FOG              
WESTERLY       CLOUDY    53  53 100 NE6       29.71F FOG              
$$
 
CTZALL-111400-
CONNECTICUT
  
CITY           SKY/WX    TMP DP  RH WIND       PRES   REMARKS
BRADLEY INTL   FOG       53  52  96 N6        29.70F VSB 1/4          
HARTFORD       FOG       55  53  93 NE7       29.70S VSB 1            
BRIDGEPORT     FOG       52  52 100 E5        29.69S VSB 1/4          
DANBURY        CLOUDY    55  53  93 SE7       29.69F FOG              
GROTON         FOG       54  54 100 NE8       29.70S VSB 1            
NEW HAVEN      CLOUDY    55  54  96 E5        29.69F FOG              
CHESTER        FOG       55  55 100 NE6       29.69F VSB<1/4          
MERIDEN        CLOUDY    54  53  97 CALM      29.69F FOG              
WILLIMANTIC    CLOUDY    55  52  89 CALM      29.71F                  
OXFORD         FOG       53  53 100 SE5       29.69F VSB<1/4          
$$

MEZ002-015-021-024-NHZ003-005-008-011-012-014-VTZ005-008-111400-
NORTHERN NEW ENGLAND
  
CITY           SKY/WX    TMP DP  RH WIND       PRES   REMARKS
PORTLAND ME    CLOUDY    44  41  89 NE10      29.83S                  
BANGOR ME      CLOUDY    39  37  92 N7        29.88R                  
CONCORD NH     SUNNY     51  38  60 E7        29.79S                  
MANCHESTER NH  MOSUNNY   52  38  58 NE9       29.77F                  
NASHUA NH      CLOUDY    50  41  71 VRB6      29.79S                  
PORTSMOUTH NH  CLOUDY    44  40  85 NE13G18   29.82                   
JAFFREY NH     CLOUDY    49  46  90 CALM      29.76S                  
KEENE NH       CLOUDY    52  47  83 NE10      29.75S                  
BURLINGTON VT  PTSUNNY   51  40  65 NW7       29.70S                  
MT. WASHINGTON PTSUNNY   41  34  75 N22G31      N/A  WCI  31          
$$

NYZ052-076-111400-
EASTERN NEW YORK
  
CITY           SKY/WX    TMP DP  RH WIND       PRES   REMARKS
ALBANY         PTSUNNY   61  54  77 E6        29.66F                  
NEW YORK CITY  FOG       53  51  93 NE7       29.66F VSB 1/4          
$$
 
ANZALL-111400-
MARINE OBSERVATIONS
  
STATION/POSITION TIME  TEMP    WIND        PRES    VSBY  WAVE
                       AIR SEA DIR/SP/G                  HT/PER
                 (UTC) (F)     (DEG/KT/KT) (MB)    (MI)  (FT/S)
BOSTON BUOY      1240   43 45   10/ 16/ 21 1008.6F
BUZZARDS BAY     1200           30/  5/  5 1007.5F
NANTUCKET SOUND  1240      46                N/A
MASS BAY-STELLWA NOT AVBL
ISLE OF SHOALS   1200   42      30/ 20/ 23 1008.1R
S OF BLOCK IS    1226      46                N/A           3/12
$$

......................KEY.........................
  SKY/WX - SKY CONDITION/PRESENT WEATHER
  TMP    - TEMPERATURE IN FAHRENHEIT
  DWPT   - DEWPOINT IN FAHRENHEIT
  RH     - RELATIVE HUMIDITY IN PERCENT
  WIND   - DIRECTION AND SPEED IN MPH
  PRES   - MEAN SEA LEVEL PRESSURE IN INCHES OF HG
  WCI    - WIND CHILL INDEX
  VSB    - VISIBILITY IN MILES
  HX     - HEAT INDEX
  TC     - TEMPERATURE IN CELSIUS
  VRB    - VARIABLE WIND DIRECTION
  N/A    - NOT AVAILABLE
  
      

Other recent Regional Weather Roundups

Fri Apr 16, 10:05am

Fri Apr 16, 9:04am

Fri Apr 16, 8:04am

Fri Apr 16, 7:04am

Fri Apr 16, 6:04am

Fri Apr 16, 5:04am

Fri Apr 16, 4:04am

Fri Apr 16, 3:04am

Fri Apr 16, 2:04am

Fri Apr 16, 1:04am

Fri Apr 16, 12:04am

Thu Apr 15, 11:05pm

Thu Apr 15, 10:04pm

Thu Apr 15, 9:04pm

Thu Apr 15, 8:04pm

Thu Apr 15, 7:05pm

Thu Apr 15, 6:04pm

Thu Apr 15, 5:05pm

Thu Apr 15, 4:04pm

Thu Apr 15, 3:05pm

Thu Apr 15, 2:04pm

Thu Apr 15, 1:05pm

Thu Apr 15, 12:04pm

Thu Apr 15, 11:04am

Thu Apr 15, 10:05am

Thu Apr 15, 9:04am

Thu Apr 15, 8:04am

Thu Apr 15, 7:04am

Thu Apr 15, 6:04am

Thu Apr 15, 5:04am

Thu Apr 15, 4:04am

Thu Apr 15, 3:04am

Thu Apr 15, 2:04am

Thu Apr 15, 1:04am

Thu Apr 15, 12:04am

Wed Apr 14, 11:04pm

Wed Apr 14, 10:04pm

Wed Apr 14, 9:04pm

Wed Apr 14, 8:04pm

Wed Apr 14, 7:04pm

Wed Apr 14, 6:04pm

Wed Apr 14, 5:05pm

Wed Apr 14, 4:04pm

Wed Apr 14, 3:05pm

Wed Apr 14, 2:04pm

Wed Apr 14, 1:05pm

Wed Apr 14, 12:04pm

Wed Apr 14, 11:04am

Wed Apr 14, 10:04am

Wed Apr 14, 9:04am

Wed Apr 14, 8:04am

Wed Apr 14, 7:04am

Wed Apr 14, 6:04am

Wed Apr 14, 5:04am

Wed Apr 14, 4:04am

Wed Apr 14, 3:04am

Wed Apr 14, 2:04am

Wed Apr 14, 1:04am

Wed Apr 14, 12:04am

Tue Apr 13, 11:04pm

Tue Apr 13, 10:05pm

Tue Apr 13, 9:05pm

Tue Apr 13, 8:05pm

Tue Apr 13, 7:04pm

Tue Apr 13, 6:04pm

Tue Apr 13, 5:05pm

Tue Apr 13, 4:04pm

Tue Apr 13, 3:04pm

Tue Apr 13, 2:05pm

Tue Apr 13, 1:04pm

Tue Apr 13, 12:05pm

Tue Apr 13, 11:05am

Tue Apr 13, 10:04am

Tue Apr 13, 9:04am

Tue Apr 13, 8:04am

Tue Apr 13, 7:04am

Tue Apr 13, 6:04am

Tue Apr 13, 5:04am

Tue Apr 13, 4:04am

Tue Apr 13, 3:04am

Tue Apr 13, 2:04am

Tue Apr 13, 1:04am

Tue Apr 13, 12:05am

Mon Apr 12, 11:04pm

Mon Apr 12, 10:04pm

Mon Apr 12, 9:04pm

Mon Apr 12, 8:04pm

Mon Apr 12, 7:05pm

Mon Apr 12, 6:04pm

Mon Apr 12, 5:04pm

Mon Apr 12, 4:04pm

Mon Apr 12, 3:05pm

Mon Apr 12, 2:04pm

Mon Apr 12, 1:05pm

Mon Apr 12, 12:04pm

Mon Apr 12, 11:04am

Mon Apr 12, 10:04am

Mon Apr 12, 9:04am

Mon Apr 12, 8:04am

Mon Apr 12, 7:04am

Mon Apr 12, 6:04am

Mon Apr 12, 5:04am

Mon Apr 12, 4:04am

Mon Apr 12, 3:04am

Mon Apr 12, 2:04am

Mon Apr 12, 1:05am

Mon Apr 12, 12:04am

Sun Apr 11, 11:04pm

Sun Apr 11, 10:04pm

Sun Apr 11, 9:04pm

Sun Apr 11, 8:04pm

Sun Apr 11, 7:04pm

Sun Apr 11, 6:05pm

Sun Apr 11, 5:05pm

Sun Apr 11, 4:04pm

Sun Apr 11, 3:05pm

Sun Apr 11, 2:05pm

Sun Apr 11, 1:05pm

Sun Apr 11, 12:04pm

Sun Apr 11, 11:05am

Sun Apr 11, 10:05am

Sun Apr 11, 8:04am

Sun Apr 11, 7:04am

Sun Apr 11, 6:04am

Sun Apr 11, 5:04am

Sun Apr 11, 4:04am

Sun Apr 11, 3:04am

Sun Apr 11, 2:04am

Sun Apr 11, 1:05am

Sun Apr 11, 12:04am

Sat Apr 10, 11:05pm

Sat Apr 10, 10:04pm

Sat Apr 10, 9:04pm

Sat Apr 10, 8:04pm

Sat Apr 10, 7:05pm

Sat Apr 10, 6:04pm

Sat Apr 10, 5:04pm

Sat Apr 10, 4:04pm

Sat Apr 10, 3:04pm

Sat Apr 10, 2:05pm

Sat Apr 10, 1:04pm

Sat Apr 10, 12:04pm

Sat Apr 10, 11:04am

Sat Apr 10, 10:04am

Sat Apr 10, 9:04am

Sat Apr 10, 8:04am

Sat Apr 10, 7:04am

Sat Apr 10, 6:04am

Sat Apr 10, 5:04am

Sat Apr 10, 4:04am

Sat Apr 10, 3:04am

Sat Apr 10, 2:04am

Sat Apr 10, 1:05am

Sat Apr 10, 12:04am

Fri Apr 9, 11:04pm

Fri Apr 9, 10:05pm

Fri Apr 9, 9:04pm

Fri Apr 9, 8:05pm

Fri Apr 9, 7:05pm

Fri Apr 9, 6:04pm

Fri Apr 9, 5:04pm

Fri Apr 9, 4:05pm

Fri Apr 9, 3:05pm

Fri Apr 9, 2:04pm

Fri Apr 9, 1:04pm

Fri Apr 9, 12:04pm

Fri Apr 9, 11:05am

Meta data:

ID: a79a2590-4114-46e3-bf6e-3a731192b207
Link: https://api.weather.gov/products/a79a2590-4114-46e3-bf6e-3a731192b207